Regional Weather Roundup
Issued by NWS

Home | Current Version | Previous Version | Graphics & Text | Print | Product List | Glossary Off
Versions: 1 2 3 4 5 6 7 8 9 10 11 12 13 14 15 16 17 18 19 20 21 22 23 24 25 26 27 28 29 30 31 32 33 34 35 36 37 38 39 40 41 42 43 44 45 46 47 48 49 50

000
ASUS43 KMPX 251301
RWRMN
WEATHER ROUNDUP FOR MINNESOTA
NATIONAL WEATHER SERVICE TWIN CITIES/CHANHASSEN MN
700 AM CST SUN FEB 25 2018


NOTE: "FAIR" INDICATES FEW OR NO CLOUDS BELOW 12,000 FEET WITH NO
SIGNIFICANT WEATHER AND/OR OBSTRUCTIONS TO VISIBILITY. N/A MEANS
CURRENT SKY AND/OR WEATHER CONDITIONS ARE NOT AVAILABLE.

MNZ060>063-068>070-251400-
   Twin Cities Metro

CITY           SKY/WX    TMP DP  RH WIND       PRES   REMARKS
TWIN CITIES    CLOUDY    17  14  88 W13       29.63R WCI   4
ST PAUL        CLOUDY    19  14  81 SW10      29.65R WCI   7
CRYSTAL        CLOUDY    18  13  80 W13       29.62R WCI   5
BLAINE         CLOUDY    19  18  93 SW13G18   29.61R WCI   7
LAKEVILLE      FAIR      14  10  85 SW7G16    29.65R WCI   4
EDEN PRAIRIE   MOCLDY    16  11  80 W12       29.62R WCI   3
SOUTH ST PAUL  CLOUDY    19  15  82 W12G18    29.64R WCI   7
LAKE ELMO      CLOUDY    19  16  86 SW12      29.62R WCI   7
$$
MNZ001>005-007-008-013>017-022>024-027-028-251400-
   Northwest Minnesota

CITY           SKY/WX    TMP DP  RH WIND       PRES   REMARKS
BEMIDJI        CLOUDY    19  17  93 W14       29.43R WCI   5
HALLOCK        LGT SNOW  14  12  92 SW6       29.47S WCI   5
ROSEAU         LGT SNOW  18  14  86 W7        29.43R WCI   8
WARROAD        FLURRIES  19  16  86 W7        29.42R WCI  10
THIEF RVR FALL FLURRIES  15  13  91 W12       29.48R WCI   2
CROOKSTON      FLURRIES  14  10  85 W12       29.52R WCI   0
FOSSTON        LGT SNOW  14  12  92 SW8       29.48R WCI   3
DETROIT LAKES  FLURRIES  14  12  92 SW6       29.53R WCI   5
MOORHEAD       CLOUDY    12   9  85 W7        29.57R WCI   2
PARK RAPIDS    CLOUDY    17  13  84 W13       29.47R WCI   4
MAHNOMEN       CLOUDY    12  10  89 SW13      29.49R WCI  -3
$$
MNZ006-009>011-018-025>026-251400-
   North Central Minnesota

CITY           SKY/WX    TMP DP  RH WIND       PRES   REMARKS
BAUDETTE       LGT SNOW  20  18  92 NW10      29.37R FOG     WCI   9
FLAG ISLAND    LGT SNOW  19  18  93 NW13      29.38F WCI   7
INTL FALLS     LGT SNOW  21  19  92 W7        29.32R FOG     WCI  12
WASKISH        FLURRIES  19  18  93 W13       29.39R WCI   7
LONGVILLE      CLOUDY    19  16  86 W10       29.45R WCI   8
GRAND RAPIDS   FLURRIES  20  17  88 W12G22    29.42R WCI   8
CRANE LAKE     LGT SNOW  19  18  93 CALM      29.31R
ORR            MIX PCPN  19  16  86 W5        29.29R WCI  13
COOK           FLURRIES  19  18  93 W9        29.32R WCI   9
WALKER         CLOUDY    19  16  88 W10G17    29.45R WCI   8
$$
MNZ012-019>021-037-251400-
   Northeast Minnesota

CITY           SKY/WX    TMP DP  RH WIND       PRES   REMARKS
DULUTH         CLOUDY    22  17  81 W24G33    29.35R WCI   5
ELY            CLOUDY    19  19 100 W10       29.27R WCI   8
HIBBING        CLOUDY    19  16  88 W10G20    29.35R WCI   7
DULUTH HARBOR  LGT SNOW  25  19  80 W24G31    29.41R WCI   9
TWO HARBORS    MOCLDY    27  19  74 W20G29    29.30R WCI  13
GRAND MARAIS     N/A     30  26  85 W6        29.22S WCI  24
G MARAIS ARPRT LGT SNOW  23  19  86 SW6       29.17R WCI  16
$$
MNZ029>031-032-039>041-046>048-054>057-064-251400-
   West Central Minnesota

CITY           SKY/WX    TMP DP  RH WIND       PRES   REMARKS
FERGUS FALLS   CLOUDY     7   3  85 CALM      29.59R
WHEATON        CLEAR     14   9  79 SW7       29.63R WCI   4
MORRIS         MOCLDY     7   3  85 W10       29.60R WCI  -8
ALEXANDRIA     FAIR       9   6  88 W13       29.57R WCI  -7
ELBOW LAKE     CLOUDY     6   4  89 SW6       29.59R WCI  -4
WADENA         CLOUDY    16  14  93 W12       29.51R WCI   3
GLENWOOD       FAIR       7   3  85 W14       29.58R WCI -10
APPLETON       CLEAR      5   1  85 W10       29.64R WCI -10
BENSON         CLOUDY     5   0  78 W8        29.62R WCI  -8
ORTONVILLE     MOCLDY    12   7  79 NW13      29.62R WCI  -3
MADISON        CLEAR     12   7  79 W9        29.66R WCI   0
WILLMAR        FAIR       9   3  78 W12       29.65R WCI  -6
$$
MNZ033>034-036-042>043-049>051-058-059-251400-
   Central Minnesota

CITY           SKY/WX    TMP DP  RH WIND       PRES   REMARKS
ST CLOUD       CLOUDY    17  14  88 W16       29.58R WCI   2
SAUK CENTRE    FAIR       9   5  85 W10       29.58R WCI  -5
PAYNESVILLE    FAIR       7   5  93 SW9       29.60R WCI  -7
AITKIN         FAIR      19  16  86 SW10G16   29.44R WCI   8
PINE RIVER     CLOUDY    18  16  93 W5        29.52R WCI  11
BRAINERD       CLOUDY    20  15  81 W13       29.50R WCI   7
STAPLES        CLOUDY    16  14  93 W17       29.52R WCI   0
LONG PRAIRIE   CLOUDY    14  12  92 SW13G21   29.56R WCI   0
LITTLE FALLS   CLOUDY    19  12  73 SW8       29.56R WCI   9
LITCHFIELD     FAIR      12   9  85 W6        29.62R WCI   3
BUFFALO        CLOUDY    16  11  83 SW8       29.62R WCI   5
MAPLE LAKE     MOCLDY    16  13  87 W8        29.61R WCI   5
HUTCHINSON     FAIR      12   8  83 W13       29.63S WCI  -3
$$
MNZ037-044-045-052-053-251400-
   East Central Minnesota

CITY           SKY/WX    TMP DP  RH WIND       PRES   REMARKS
PRINCETON      CLOUDY    19  16  86 SW10G17   29.57R WCI   8
CAMBRIDGE        N/A     21  18  86 SW8G17    29.57R WCI  12
RUSH CITY      CLOUDY    21  18  86 SW10      29.54R WCI  10
MOOSE LAKE     CLOUDY    23  18  80 W8        29.44R WCI  14
HINCKLEY       CLOUDY    23  19  86 W13       29.50R WCI  11
CLOQUET        CLOUDY    21  18  86 W15G22    29.39R WCI   8
MCGREGOR       CLOUDY    23  19  86 W8        29.45R WCI  14
$$
MNZ071>073-080-081-089-090-097-098-251400-
   Southwest Minnesota

CITY           SKY/WX    TMP DP  RH WIND       PRES   REMARKS
MONTEVIDEO     PTCLDY    10   7  85 W7        29.65R WCI   0
GRANITE FALLS  CLEAR     11   6  79 SW12      29.67R WCI  -3
CANBY          PTCLDY    15   9  78 NW8       29.68R WCI   4
MARSHALL       CLEAR     12   7  80 W17       29.68R WCI  -5
REDWOOD FALLS  PTCLDY    12   6  77 W15       29.66R WCI  -4
OLIVIA         PTCLDY    12   9  85 W12       29.65R WCI  -2
PIPESTONE      CLEAR      9   3  78 W13       29.70R WCI  -7
WORTHINGTON    CLEAR     11   6  81 SW12      29.73R WCI  -3
JACKSON        CLEAR     14   9  79 W26G32    29.69S HAZE    WCI  -6
TRACY          CLEAR     16  10  79 W14G23    29.68R WCI   1
SLAYTON        CLEAR     13   8  81 W20       29.69R WCI  -5
$$
MNZ065>067-074>077-082>085-091>093-251400-
   South Central Minnesota

CITY           SKY/WX    TMP DP  RH WIND       PRES   REMARKS
MANKATO        FAIR      14   9  80 W17       29.69R WCI  -3
NEW ULM        CLEAR     12   7  79 SW13      29.68R WCI  -3
ST JAMES       CLEAR     12   9  85 W14       29.71R WCI  -3
FAIRMONT       CLEAR     13   8  81 W20       29.72R WCI  -5
GLENCOE        FAIR      14  10  87 SW8       29.63R WCI   2
FARIBAULT      FAIR      12  10  92 S10       29.68R WCI  -1
OWATONNA       FAIR      12  10  92 SW16      29.68R WCI  -4
WASECA         FAIR      14  10  85 SW15      29.71R WCI  -1
ALBERT LEA     FAIR      14   9  79 W8        29.70R WCI   3
$$
MNZ078>079-086>088-094>096-251400-
   Southeast Minnesota

CITY           SKY/WX    TMP DP  RH WIND       PRES   REMARKS
ROCHESTER      FAIR      14  12  92 SW17      29.67R WCI  -3
RED WING       CLOUDY    21  14  73 W15G21    29.65R WCI   8
STANTON        MOCLDY    17  12  80 SW9       29.65R WCI   6
DODGE CENTER   FAIR      12  10  92 SW15      29.66R WCI  -4
WINONA         CLOUDY    23  18  80 W6G17     29.69R WCI  16
AUSTIN         FAIR      14  10  85 SW9       29.71R WCI   2
PRESTON        FAIR      16  13  88 SW12      29.69S WCI   3
$$
ABBREVIATIONS USED IN REMARKS
   TC - TEMPERATURES IN CELSIUS
  WCI - WIND CHILL INDEX
   HX - HEAT INDEX
  VSB - VISIBILITY
$$



USA.gov is the U.S. government's official web portal to all federal, state and local government web resources and services.